CDT,Max TemperatureF,Mean TemperatureF,Min TemperatureF,Max Dew PointF,MeanDew PointF,Min DewpointF,Max Humidity, Mean Humidity, Min Humidity, Max Sea Level PressureIn, Mean Sea Level PressureIn, Min Sea Level PressureIn, Max VisibilityMiles, Mean VisibilityMiles, Min VisibilityMiles, Max Wind SpeedMPH, Mean Wind SpeedMPH, Max Gust SpeedMPH,PrecipitationIn, CloudCover, Events, WindDirDegrees
2013-6-1,93,84,75,76,74,72,89,73,52,29.83,29.80,29.75,12,8,6,8,3,,0.00,3,,228
2013-6-2,92,84,76,78,76,73,89,78,61,29.87,29.81,29.75,12,8,6,9,2,,0.00,5,,146
2013-6-3,94,86,78,79,77,75,89,79,53,29.87,29.81,29.74,12,8,6,12,3,,0.00,6,,156
2013-6-4,94,86,77,78,76,73,89,78,55,29.87,29.82,29.76,12,9,6,9,5,,0.00,6,,181
2013-6-5,93,85,77,78,77,73,94,81,56,29.88,29.80,29.73,12,9,6,13,4,,0.00,7,Thunderstorm,173
2013-6-6,95,86,77,79,77,73,94,80,56,29.85,29.78,29.69,12,9,6,10,5,,0.00,5,,138
2013-6-7,95,86,76,79,78,75,94,79,53,29.86,29.80,29.74,12,9,5,9,3,,0.08,5,Rain,152
2013-6-8,96,86,76,81,75,72,89,74,46,29.88,29.82,29.75,12,10,6,12,5,,0.00,5,,117
2013-6-9,92,83,74,78,75,72,94,77,57,29.90,29.84,29.75,12,8,5,13,4,,0.12,7,Rain-Thunderstorm,80
2013-6-10,95,86,77,79,76,73,89,76,52,29.92,29.85,29.77,12,8,6,9,3,,0.28,5,Thunderstorm,110
2013-6-11,95,85,75,79,76,72,91,77,47,29.96,29.89,29.81,12,9,5,13,6,,0.02,6,Rain-Thunderstorm,57
2013-6-12,94,86,77,79,76,75,94,75,54,29.98,29.91,29.83,12,9,6,20,4,,0.00,4,,203
2013-6-13,95,86,78,78,77,75,86,74,51,29.96,29.88,29.78,12,9,6,12,4,,0.00,5,,275
2013-6-14,94,86,78,79,77,73,84,72,54,29.89,29.82,29.73,12,9,6,14,5,,0.00,5,,273
2013-6-15,96,88,75,80,77,72,94,75,58,29.93,29.84,29.79,12,9,2,21,4,,1.26,6,Rain-Thunderstorm,246
2013-6-16,96,82,68,78,75,72,100,78,50,29.96,29.86,29.75,12,8,5,14,6,,0.12,5,Rain-Thunderstorm,320
2013-6-17,93,85,77,81,78,75,91,79,59,29.92,29.82,29.75,12,8,6,14,5,,0.00,3,,282
2013-6-18,94,86,78,80,78,75,91,77,56,29.87,29.80,29.72,12,9,6,10,4,,0.00,3,,261
2013-6-19,93,84,75,79,75,72,94,75,44,29.86,29.79,29.70,12,8,5,12,5,,0.15,6,Rain,234
2013-6-20,95,86,77,78,74,70,81,70,51,29.87,29.81,29.73,12,9,6,9,4,,0.00,6,,6
2013-6-21,96,86,77,79,76,73,94,76,49,29.92,29.86,29.81,12,8,3,18,5,,0.43,5,Rain,93
2013-6-22,93,84,76,78,76,73,94,79,55,29.92,29.85,29.78,12,8,6,8,4,,0.02,7,Rain,100
2013-6-23,94,84,75,78,75,73,94,81,60,29.93,29.85,29.80,12,7,1,18,6,,1.02,8,Rain-Thunderstorm,75
2013-6-24,94,84,73,78,75,73,100,89,76,29.96,29.90,29.85,11,7,0,20,6,31,0.31,8,Rain-Thunderstorm,77
2013-6-25,90,82,75,76,74,72,91,79,60,30.01,29.93,29.85,12,8,6,16,5,,0.00,6,Rain,76
2013-6-26,90,83,76,78,76,75,94,82,63,29.96,29.91,29.85,12,8,6,9,4,,0.00,6,,301
2013-6-27,94,84,75,79,76,72,89,77,60,29.98,29.90,29.81,12,8,6,10,4,,0.08,7,,288
2013-6-28,91,82,72,80,74,70,100,80,56,29.96,29.90,29.85,12,8,5,10,4,,1.93,7,Rain-Thunderstorm,56
2013-6-29,93,84,74,77,74,72,94,76,56,29.94,29.87,29.81,12,8,6,7,3,,0.00,6,,64
2013-6-30,91,84,76,78,75,73,89,78,60,29.90,29.86,29.82,12,8,5,9,3,,1.05,6,Rain,145